Location: Franzen
(48.6167°N, 15.3833°E)
Time: 15:58:14
(UTC+00:00)

Cosmos 2219 - Pass Details

Date: 29 July 2021
Orbit: 834 x 860 km, 71.1° (Epoch: 18 September)

Event Time Altitude Azimuth Distance (km) Brightness Sun altitude
Exits shadow 02:18:29 - 274° (W) 3,444 6.0 -10.1°
Rises 02:18:32 0° 274° (W) 3,431 6.0 -10.1°
Reaches altitude 10° 02:22:25 10° 300° (WNW) 2,501 5.5 -9.6°
Maximum altitude 02:25:13 14° 329° (NNW) 2,255 5.6 -9.3°
Drops below altitude 10° 02:28:01 10° 359° (N) 2,507 6.3 -8.9°
Sets 02:31:56 0° 25° (NNE) 3,447 7.8 -8.5°
